map of ABY home
ABY - Airport
Location
City:  Albany, Georgia, United States
Name:Southwest Georgia Regional
ICAO:KABY
IATA:ABY
FAA LID:ABY

Details
Type:Airport (Part 139 Class I)
Use:Public/Civil
Latitude:3132'08"N (31.535528)
Longitude:8411'40"W (-84.194471)
Datum:WGS 1984
Elevation:196 ft (60 m)
Variation:5.01W (WMM2015 magnetic declination)
-0.09 annual change
Runways:2
Longest:6601 × 148 ft (2012 × 45 m), paved

Time
Time Zone:UTC-5 (DST-4)
Local Time:

Weather
METAR:KABY 241453Z 28009KT 10SM SCT027 BKN033 31/23 A3008 RMK AO2 SLP184 T03110233 51009
TAF:KABY 241120Z 2412/2512 25005KT P6SM SCT015 BKN025
FM241500 27008KT P6SM SCT050
FM250000 22004KT P6SM SCT250

Related Locations
Nearby:
Farthest:USL: 11317 mi / 18212 km
Useless Loop, WA, AU

Find:

   beyond  
but within

Other Information
Maps:
Delays:
NOTAMs:
Links:
Sources:

  
  • flag of United States
  • flag of Georgia
  

Airport Diagram

Airport diagram for ABY

Airport diagram PDF

Sectional Chart

Flight Planning
at skyvector.com

Satellite Image

Google Maps Satellite view

 

Copyright © 2004-2018 Karl L. Swartz. All rights reserved.
The Great Circle Mapper name and logo are trademarks of the Great Circle Mapper.
All other trademarks mentioned herein belong to their respective owners.
Please see credits for attibutions and further copyright information.

  Follow gcmap on Facebook Follow gcmap on Twitter Follow gcmap on Google+ GCmap on LinkedIn

hCard Microformat

Geo Microformat